• In Belarus
  • List of Countries
  • For 7 days
  • Water Temperature
  • Satellite Maps
  • Weather Map
  • Weather Widgets
  • user-avatar
    Login

    Hourly Weather Ilkino

    Today, 19 February, Tuesday

    Time Temperature Precipitation Wind Pressure Humidity
    00:00 -12°C° 0 mm 0 mps 754 mmHg 90%
    01:00 -12°C° 0 mm 1 mps 753 mmHg 91%
    02:00 -13°C° 0 mm 2 mps 753 mmHg 91%
    03:00 -13°C° 0 mm 3 mps 752 mmHg 92%
    04:00 -12°C° 0 mm 3 mps 752 mmHg 90%
    05:00 -11°C° 0 mm 4 mps 751 mmHg 88%
    06:00 -11°C° 0 mm 5 mps 750 mmHg 86%
    07:00 -11°C° 0 mm 5 mps 749 mmHg 85%
    08:00 -11°C° 0 mm 6 mps 749 mmHg 84%
    09:00 -11°C° 0 mm 7 mps 747 mmHg 82%
    10:00 -8°C° 0 mm 6 mps 747 mmHg 80%
    11:00 -6°C° 0 mm 6 mps 746 mmHg 77%
    12:00 -4°C° 0 mm 6 mps 746 mmHg 75%
    13:00 -4°C° 0 mm 6 mps 746 mmHg 78%
    14:00 -2°C° 0 mm 5 mps 745 mmHg 80%
    15:00 -1°C° 0 mm 5 mps 745 mmHg 83%
    16:00 -1°C° 0 mm 5 mps 745 mmHg 84%
    17:00 -2°C° 0 mm 5 mps 744 mmHg 86%
    18:00 -2°C° 0 mm 4 mps 744 mmHg 87%
    19:00 -3°C° 0 mm 4 mps 744 mmHg 87%
    20:00 -3°C° 0 mm 4 mps 743 mmHg 87%
    21:00 -4°C° 0 mm 4 mps 743 mmHg 87%
    22:00 -4°C° 0 mm 4 mps 742 mmHg 87%
    23:00 -4°C° 0 mm 4 mps 741 mmHg 87%

    Tomorrow, 20 February, Wednesday

    Time Temperature Precipitation Wind Pressure Humidity
    00:00 -6°C° 0 mm 5 mps 741 mmHg 88%
    01:00 -5°C° 0 mm 5 mps 740 mmHg 88%
    02:00 -4°C° 0 mm 5 mps 739 mmHg 89%
    03:00 -2°C° 0 mm 5 mps 739 mmHg 90%
    04:00 -2°C° 0.1 mm 5 mps 738 mmHg 90%
    05:00 -2°C° 0.1 mm 5 mps 737 mmHg 90%
    06:00 -1°C° 0.1 mm 5 mps 736 mmHg 90%
    07:00 -1°C° 0.2 mm 5 mps 736 mmHg 91%
    08:00 -1°C° 0.2 mm 5 mps 735 mmHg 91%
    09:00 0°C° 0.2 mm 5 mps 735 mmHg 92%
    10:00 0°C° 0.2 mm 5 mps 735 mmHg 94%
    11:00 0°C° 0.2 mm 5 mps 735 mmHg 95%
    12:00 0°C° 0.2 mm 5 mps 735 mmHg 96%
    13:00 0°C° 0 mm 5 mps 735 mmHg 96%
    14:00 0°C° 0 mm 5 mps 735 mmHg 95%
    15:00 0°C° 0 mm 5 mps 735 mmHg 94%
    16:00 0°C° 0.1 mm 5 mps 734 mmHg 93%
    17:00 0°C° 0.1 mm 5 mps 734 mmHg 92%
    18:00 0°C° 0.1 mm 5 mps 734 mmHg 91%
    19:00 -1°C° 0.1 mm 5 mps 734 mmHg 91%
    20:00 -1°C° 0.1 mm 5 mps 734 mmHg 91%
    21:00 -1°C° 0.1 mm 5 mps 733 mmHg 90%
    22:00 -1°C° 0.2 mm 4 mps 733 mmHg 91%
    23:00 -1°C° 0.2 mm 4 mps 733 mmHg 92%

    Day after tomorrow, 21 February, Thursday

    Time Temperature Precipitation Wind Pressure Humidity
    00:00 -1°C° 0.2 mm 4 mps 733 mmHg 93%
    01:00 -1°C° 0.2 mm 4 mps 733 mmHg 93%
    02:00 0°C° 0.2 mm 3 mps 733 mmHg 93%
    03:00 0°C° 0.2 mm 3 mps 733 mmHg 94%
    04:00 -1°C° 0.2 mm 3 mps 733 mmHg 93%
    05:00 -3°C° 0.2 mm 4 mps 733 mmHg 93%
    06:00 -4°C° 0.2 mm 4 mps 733 mmHg 92%
    07:00 -4°C° 0.5 mm 4 mps 733 mmHg 93%
    08:00 -4°C° 0.5 mm 4 mps 733 mmHg 93%
    09:00 -4°C° 0.5 mm 4 mps 734 mmHg 94%
    10:00 -3°C° 0.4 mm 4 mps 734 mmHg 93%
    11:00 -4°C° 0.4 mm 5 mps 735 mmHg 93%
    12:00 -3°C° 0.4 mm 6 mps 736 mmHg 92%
    13:00 -5°C° 0.2 mm 6 mps 736 mmHg 90%
    14:00 -7°C° 0.2 mm 7 mps 737 mmHg 88%
    15:00 -10°C° 0.2 mm 8 mps 738 mmHg 86%
    16:00 -11°C° 0.1 mm 7 mps 739 mmHg 85%
    17:00 -12°C° 0.1 mm 7 mps 740 mmHg 84%
    18:00 -13°C° 0.1 mm 7 mps 741 mmHg 83%
    19:00 -13°C° 0.1 mm 7 mps 742 mmHg 83%
    20:00 -14°C° 0.1 mm 7 mps 743 mmHg 83%
    21:00 -14°C° 0.1 mm 7 mps 744 mmHg 82%
    22:00 -15°C° 0 mm 7 mps 744 mmHg 81%
    23:00 -15°C° 0 mm 7 mps 745 mmHg 80%

    22 February, Friday

    Time Temperature Precipitation Wind Pressure Humidity
    00:00 -15°C° 0 mm 7 mps 745 mmHg 79%
    01:00 -17°C° 0 mm 7 mps 746 mmHg 79%
    02:00 -17°C° 0 mm 7 mps 746 mmHg 79%
    03:00 -18°C° 0 mm 7 mps 747 mmHg 80%
    04:00 -18°C° 0 mm 7 mps 747 mmHg 79%
    05:00 -18°C° 0 mm 7 mps 747 mmHg 79%
    06:00 -18°C° 0 mm 8 mps 747 mmHg 79%
    07:00 -18°C° 0.1 mm 8 mps 748 mmHg 79%
    08:00 -18°C° 0.1 mm 8 mps 748 mmHg 79%
    09:00 -18°C° 0.1 mm 8 mps 749 mmHg 79%
    10:00 -17°C° 0.1 mm 9 mps 749 mmHg 79%
    11:00 -17°C° 0.1 mm 9 mps 749 mmHg 79%
    12:00 -17°C° 0.1 mm 9 mps 750 mmHg 79%
    13:00 -17°C° 0.1 mm 9 mps 750 mmHg 79%
    14:00 -16°C° 0.1 mm 9 mps 750 mmHg 79%
    15:00 -16°C° 0.1 mm 9 mps 751 mmHg 79%
    16:00 -16°C° 0.1 mm 8 mps 751 mmHg 79%
    17:00 -16°C° 0.1 mm 8 mps 752 mmHg 79%
    18:00 -16°C° 0.1 mm 8 mps 753 mmHg 79%
    19:00 -17°C° 0 mm 7 mps 753 mmHg 79%
    20:00 -17°C° 0 mm 7 mps 754 mmHg 79%
    21:00 -17°C° 0 mm 7 mps 755 mmHg 79%
    22:00 -18°C° 0 mm 7 mps 755 mmHg 80%
    23:00 -17°C° 0 mm 6 mps 756 mmHg 82%

    23 February, Saturday

    Time Temperature Precipitation Wind Pressure Humidity
    00:00 -18°C° 0 mm 6 mps 756 mmHg 83%
    01:00 -18°C° 0 mm 6 mps 757 mmHg 84%
    02:00 -18°C° 0 mm 5 mps 757 mmHg 85%
    03:00 -19°C° 0 mm 5 mps 758 mmHg 86%
    04:00 -19°C° 0 mm 5 mps 758 mmHg 86%
    05:00 -20°C° 0 mm 5 mps 758 mmHg 87%
    06:00 -20°C° 0 mm 5 mps 758 mmHg 87%
    07:00 -19°C° 0 mm 4 mps 759 mmHg 88%
    08:00 -19°C° 0 mm 4 mps 759 mmHg 88%
    09:00 -19°C° 0 mm 4 mps 759 mmHg 88%
    10:00 -18°C° 0 mm 4 mps 759 mmHg 86%
    11:00 -18°C° 0 mm 4 mps 759 mmHg 85%
    12:00 -17°C° 0 mm 4 mps 760 mmHg 83%
    13:00 -16°C° 0 mm 4 mps 759 mmHg 82%
    14:00 -15°C° 0 mm 4 mps 759 mmHg 81%
    15:00 -14°C° 0 mm 3 mps 759 mmHg 81%
    16:00 -15°C° 0 mm 3 mps 759 mmHg 83%
    17:00 -15°C° 0 mm 2 mps 759 mmHg 86%
    18:00 -15°C° 0 mm 2 mps 759 mmHg 88%
    19:00 -16°C° 0 mm 2 mps 759 mmHg 88%
    20:00 -14°C° 0 mm 1 mps 759 mmHg 88%
    21:00 -14°C° 0 mm 1 mps 759 mmHg 89%
    22:00 -14°C° 0 mm 1 mps 759 mmHg 88%
    23:00 -14°C° 0 mm 1 mps 759 mmHg 87%

    24 February, Sunday

    Time Temperature Precipitation Wind Pressure Humidity
    00:00 -14°C° 0 mm 0 mps 760 mmHg 86%
    01:00 -14°C° 0 mm 0 mps 760 mmHg 86%
    02:00 -13°C° 0 mm 0 mps 760 mmHg 85%
    03:00 -13°C° 0 mm 0 mps 760 mmHg 85%
    04:00 -13°C° 0 mm 1 mps 760 mmHg 85%
    05:00 -12°C° 0 mm 1 mps 760 mmHg 86%
    06:00 -12°C° 0 mm 1 mps 760 mmHg 86%
    07:00 -11°C° 0 mm 1 mps 761 mmHg 88%
    08:00 -11°C° 0 mm 1 mps 761 mmHg 90%
    09:00 -10°C° 0 mm 1 mps 761 mmHg 91%
    10:00 -9°C° 0 mm 1 mps 761 mmHg 90%
    11:00 -8°C° 0 mm 1 mps 761 mmHg 90%
    12:00 -7°C° 0 mm 2 mps 762 mmHg 89%
    13:00 -6°C° 0 mm 1 mps 761 mmHg 89%
    14:00 -4°C° 0 mm 1 mps 761 mmHg 88%
    15:00 -4°C° 0 mm 1 mps 761 mmHg 88%
    16:00 -4°C° 0 mm 1 mps 761 mmHg 89%
    17:00 -4°C° 0 mm 1 mps 761 mmHg 91%
    18:00 -6°C° 0 mm 1 mps 761 mmHg 93%
    19:00 -4°C° 0 mm 1 mps 761 mmHg 94%
    20:00 -4°C° 0 mm 1 mps 761 mmHg 94%
    21:00 -4°C° 0 mm 1 mps 761 mmHg 95%
    22:00 -4°C° 0 mm 1 mps 761 mmHg 95%
    23:00 -6°C° 0 mm 2 mps 761 mmHg 95%
    Show more